DIRECTV 9S

Last updated on Tue Sep 22 2026 00:03:11 GMT+0000 (Coordinated Universal Time)

1 29494U 06043A 26264.52723317 -.00000128 00000+0 00000+0 0 9991 2 29494 2.6633 79.6331 0006758 193.8114 100.7924 0.99098071 52342
UTC large
Height (km)
Speed (km/s)
/
Latitude / Longitude
Inclination (degrees)
Orbital Period (minutes)
Azimuth
Elevation
Range (km)
Doppler Factor

Next 0 passes for location: London (51.5072 / 0.1276)

No passes found over London.
DIRECTV 9S